CW7427 Weather Reports


time (UTC)temp
F
wind
direction
speed
knots
gust
knots
rain 1hr
in
rain 24hr
in
rain mn
in
humidity
%
barometer
mb
20260505064817 69 204 0.0 0.9 0.00 0.00 0.00 48 1015.9
20260505064309 69 204 0.0 0.9 0.00 0.00 0.00 48 1015.8
20260505063802 69 204 0.0 0.0 0.00 0.00 0.00 47 1015.7
20260505063253 69 204 0.0 0.0 0.00 0.00 0.00 47 1015.6
20260505062747 69 204 0.0 4.3 0.00 0.00 0.00 47 1015.5
20260505062506 70 204 0.0 4.3 0.00 0.00 0.00 46 1015.5
20260505061730 70 199 0.0 1.7 0.00 0.00 0.00 48 1015.5
20260505061444 70 199 0.0 1.7 0.00 0.00 0.00 47 1015.4
20260505060714 70 199 0.0 0.0 0.00 0.00 0.00 49 1015.5
20260505060204 70 199 0.0 0.0 0.00 0.00 0.00 49 1015.4
20260505055655 71 199 0.0 1.7 0.00 0.00 0.00 47 1015.4
20260505055143 71 199 0.0 1.7 0.00 0.00 0.00 46 1015.4
20260505054642 71 199 0.0 1.7 0.00 0.00 0.00 46 1015.3
20260505054404 71 199 0.0 0.9 0.00 0.00 0.00 47 1015.4
20260505054113 71 199 0.0 4.3 0.00 0.00 0.00 47 1015.3
20260505053121 71 198 0.0 0.9 0.00 0.00 0.00 47 1015.4
20260505052610 71 197 0.0 0.9 0.00 0.00 0.00 47 1015.3
20260505052324 71 198 0.0 4.3 0.00 0.00 0.00 46 1015.4
20260505051552 71 197 0.0 4.3 0.00 0.00 0.00 46 1015.4
20260505051301 71 188 0.0 0.9 0.00 0.00 0.00 47 1015.4
20260505050530 71 188 0.0 0.9 0.00 0.00 0.00 46 1015.4
20260505041407 71 188 0.0 1.7 0.00 0.00 0.00 48 1015.1
20260505040856 71 188 0.0 2.6 0.00 0.00 0.00 48 1015.0
20260505040346 71 188 0.0 2.6 0.00 0.00 0.00 48 1015.0
20260505035836 71 191 0.0 1.7 0.00 0.00 0.00 49 1014.9
20260505035329 71 195 0.0 1.7 0.00 0.00 0.00 49 1015.0
20260505034824 71 195 0.0 0.9 0.00 0.00 0.00 48 1015.1
20260505034315 71 195 0.0 1.7 0.00 0.00 0.00 49 1015.0
20260505033804 71 195 0.0 1.7 0.00 0.00 0.00 49 1014.9
20260505033515 71 195 0.0 0.9 0.00 0.00 0.00 49 1015.1
20260505032744 71 195 0.0 0.9 0.00 0.00 0.00 49 1015.2
20260505032233 71 195 0.0 0.9 0.00 0.00 0.00 50 1015.2
20260505031728 71 195 0.0 0.9 0.00 0.00 0.00 49 1015.3
20260505031222 71 195 0.0 3.5 0.00 0.00 0.00 51 1015.2
20260505030714 71 195 0.0 3.5 0.00 0.00 0.00 50 1015.2
20260505030204 71 190 0.0 1.7 0.00 0.00 0.00 48 1015.3
20260505025654 71 190 0.0 1.7 0.00 0.00 0.00 50 1015.3
20260505025144 71 190 0.0 4.3 0.00 0.00 0.00 49 1015.4
20260505024639 71 244 0.0 4.3 0.00 0.00 0.00 50 1015.4
20260505024132 71 232 0.0 0.9 0.00 0.00 0.00 49 1015.4
20260505023627 71 232 0.0 1.7 0.00 0.00 0.00 51 1015.5
20260505023116 71 232 0.0 1.7 0.00 0.01 0.00 50 1015.6
20260505022831 71 242 0.0 1.7 0.00 0.02 0.00 52 1015.7
20260505022108 71 242 0.0 3.5 0.00 0.02 0.00 53 1015.7
20260505021554 70 242 0.0 3.5 0.00 0.03 0.00 51 1015.6
20260505021046 71 249 0.0 1.7 0.00 0.04 0.00 54 1015.6
20260505020533 71 249 0.0 2.6 0.00 0.05 0.00 51 1015.7
20260505020029 70 248 0.0 4.3 0.00 0.06 0.00 51 1015.8
20260505015518 70 249 0.0 4.3 0.00 0.07 0.00 54 1015.8
20260505015007 70 267 0.0 4.3 0.00 0.08 0.00 53 1015.9
20260505014459 70 281 0.0 1.7 0.00 0.09 0.00 54 1016.1
20260505013943 70 281 0.0 1.7 0.00 0.09 0.00 54 1016.2
20260505013442 70 282 0.0 3.5 0.00 0.09 0.00 55 1016.3
20260505012932 70 262 0.0 3.5 0.00 0.09 0.00 54 1016.4
20260505012430 69 246 0.9 6.1 0.00 0.10 0.00 54 1016.4
20260505011918 70 234 0.0 6.1 0.00 0.11 0.00 54 1016.4
20260505011403 70 267 0.0 1.7 0.00 0.11 0.00 59 1016.4
20260505010900 69 267 0.0 3.5 0.00 0.11 0.00 56 1016.6
20260505010336 69 267 0.0 3.5 0.00 0.12 0.00 56 1016.7
20260505005838 69 227 0.0 3.5 0.00 0.12 0.00 58 1016.7
20260505005601 69 227 0.0 6.1 0.00 0.12 0.00 58 1016.7
20260505005328 68 221 0.0 6.1 0.00 0.13 0.00 57 1016.8
20260505004557 68 232 0.0 4.3 0.00 0.13 0.00 56 1017.1
20260505003834 68 234 0.0 4.3 0.00 0.13 0.00 57 1017.0
20260505003335 68 231 0.0 5.2 0.00 0.13 0.00 59 1017.1
20260505002823 68 231 0.0 5.2 0.00 0.13 0.00 59 1017.1
20260505002316 68 240 0.0 1.7 0.00 0.13 0.00 57 1017.1
20260505001756 68 242 0.0 1.7 0.00 0.13 0.00 58 1017.1
20260505001503 68 242 0.0 1.7 0.00 0.13 0.00 59 1017.1
20260505000719 68 241 0.0 1.7 0.00 0.13 0.00 60 1017.1
20260505000208 68 241 0.0 1.7 0.00 0.13 0.00 59 1017.0
20260504235654 68 242 0.0 1.7 0.00 0.13 0.00 62 1017.1
20260504235143 67 242 0.0 3.5 0.00 0.13 0.00 61 1017.1
20260504234637 67 242 0.0 3.5 0.00 0.13 0.00 60 1017.3
20260504234344 67 242 0.0 1.7 0.00 0.13 0.00 62 1017.3
20260504233622 67 242 0.0 1.7 0.00 0.13 0.00 62 1017.4
20260504233116 67 242 0.0 1.7 0.00 0.13 0.00 63 1017.4
20260504232606 66 292 0.0 1.7 0.00 0.13 0.00 63 1017.4
20260504232100 66 121 0.0 1.7 0.00 0.13 0.00 64 1017.4
20260504231553 66 122 0.0 0.9 0.00 0.13 0.00 64 1017.4
20260504231043 66 122 0.0 0.0 0.00 0.13 0.00 65 1017.3
20260504230533 65 122 0.0 1.7 0.00 0.13 0.00 69 1017.1
20260504230028 65 122 0.0 1.7 0.00 0.13 0.00 67 1017.1
20260504225517 64 121 0.0 3.5 0.00 0.13 0.00 67 1017.1
20260504225007 64 122 0.0 3.5 0.00 0.13 0.00 67 1017.1
20260504224722 64 122 0.0 1.7 0.00 0.13 0.00 68 1017.1
20260504223944 63 121 0.0 0.9 0.00 0.13 0.00 70 1017.1
20260504223447 63 122 0.0 0.0 0.00 0.13 0.00 72 1017.1
20260504222930 63 122 0.0 1.7 0.00 0.13 0.00 72 1017.3
20260504222417 62 121 0.0 1.7 0.00 0.13 0.00 73 1017.3
20260504222130 62 122 0.0 0.0 0.00 0.13 0.00 74 1017.4
20260504221408 61 121 0.0 0.9 0.00 0.13 0.00 76 1017.4
20260504221128 60 121 0.0 0.9 0.00 0.13 0.00 78 1017.3
20260504220359 59 121 0.0 0.0 0.00 0.13 0.00 82 1017.0
20260504215853 58 121 0.0 0.0 0.00 0.13 0.00 87 1017.0
20260504215346 57 121 0.0 0.0 0.00 0.13 0.00 89 1016.9
20260504214835 56 121 0.0 0.0 0.00 0.13 0.00 90 1016.7
20260504214336 56 121 0.0 0.0 0.00 0.13 0.00 90 1016.6
20260504213818 56 121 0.0 0.0 0.00 0.13 0.00 91 1016.4
20260504213541 55 121 0.0 0.0 0.00 0.13 0.00 91 1016.4
20260504212755 55 121 0.0 0.0 0.00 0.13 0.00 91 1016.3
20260504212244 55 121 0.0 0.0 0.00 0.13 0.00 91 1016.3
20260504211736 55 121 0.0 0.0 0.00 0.13 0.00 91 1016.2
20260504211236 55 121 0.0 0.0 0.00 0.13 0.00 90 1016.1
20260504210732 55 121 0.0 0.0 0.00 0.13 0.00 90 1016.1
20260504210233 54 121 0.0 0.0 0.00 0.13 0.00 90 1016.0
20260504205946 54 121 0.0 0.0 0.00 0.13 0.00 90 1015.9
20260504205212 54 121 0.0 0.0 0.00 0.13 0.00 89 1015.9
20260504204703 54 121 0.0 0.0 0.00 0.13 0.00 89 1015.7
20260504204137 55 121 0.0 0.0 0.00 0.13 0.00 89 1015.7
20260504203637 55 121 0.0 0.0 0.00 0.13 0.00 89 1015.6
20260504203117 55 121 0.0 0.0 0.00 0.13 0.00 89 1015.4
20260504202613 55 121 0.0 0.0 0.00 0.13 0.00 88 1015.3
20260504202327 55 121 0.0 0.0 0.00 0.13 0.00 88 1015.3
20260504201550 55 121 0.0 0.0 0.00 0.13 0.00 88 1015.3
20260504201041 55 122 0.0 0.0 0.00 0.13 0.00 88 1015.2
20260504200536 55 122 0.0 0.0 0.00 0.13 0.00 88 1015.2
20260504200037 55 121 0.0 0.0 0.00 0.13 0.00 88 1015.1
20260504195533 55 121 0.0 0.0 0.00 0.13 0.00 88 1015.1
20260504195027 55 121 0.0 0.0 0.00 0.13 0.00 88 1015.1
20260504194522 55 121 0.0 0.0 0.00 0.13 0.00 88 1014.9
20260504194023 55 121 0.0 0.0 0.00 0.13 0.00 88 1015.0
20260504193459 56 122 0.0 0.0 0.00 0.13 0.00 88 1015.0
20260504193001 56 121 0.0 0.0 0.00 0.13 0.00 88 1015.0
20260504192652 56 121 0.0 0.0 0.00 0.13 0.00 88 1014.9
20260504191930 56 121 0.0 0.0 0.00 0.13 0.00 88 1014.9
20260504191433 56 121 0.0 0.0 0.00 0.13 0.00 88 1014.9
20260504190921 56 121 0.0 0.0 0.00 0.13 0.00 87 1014.8
20260504190351 56 122 0.0 0.0 0.00 0.13 0.00 87 1014.8
20260504185840 56 121 0.0 0.0 0.00 0.13 0.00 87 1014.6
20260504185549 56 121 0.0 0.0 0.00 0.13 0.00 87 1014.6
20260504185055 56 121 0.0 0.0 0.00 0.13 0.00 87 1014.6
20260504184308 57 121 0.0 0.0 0.00 0.13 0.00 87 1014.6
20260504183803 57 121 0.0 0.0 0.00 0.13 0.00 87 1014.5
20260504183242 57 121 0.0 0.0 0.00 0.13 0.00 87 1014.3
20260504182732 57 121 0.0 0.0 0.00 0.13 0.00 87 1014.2
20260504182211 58 121 0.0 0.0 0.00 0.13 0.00 87 1014.1
20260504181710 58 121 0.0 0.0 0.00 0.13 0.00 87 1014.1
20260504181158 58 121 0.0 0.0 0.00 0.13 0.00 87 1014.1
20260504180650 58 121 0.0 0.0 0.00 0.13 0.00 87 1014.1
20260504180347 58 121 0.0 0.0 0.00 0.13 0.00 87 1014.1
20260504175828 58 121 0.0 0.0 0.00 0.13 0.00 87 1014.2
20260504175047 59 121 0.0 0.0 0.00 0.13 0.00 86 1014.2
20260504174533 59 121 0.0 0.0 0.00 0.13 0.00 87 1014.2
20260504174253 59 121 0.0 0.0 0.00 0.13 0.00 87 1014.1
20260504173747 60 121 0.0 0.0 0.00 0.13 0.00 87 1014.2
20260504172947 60 121 0.0 0.9 0.00 0.13 0.00 86 1014.2
20260504172435 60 121 0.0 0.9 0.00 0.13 0.00 86 1014.2
20260504171918 60 123 0.0 0.0 0.00 0.13 0.00 86 1014.3
20260504171408 60 123 0.0 0.0 0.00 0.13 0.00 86 1014.3
20260504170902 61 123 0.0 0.0 0.00 0.13 0.00 86 1014.3
20260504170358 61 123 0.0 0.0 0.00 0.13 0.00 86 1014.3
20260504150714 64 5 0.0 0.0 0.00 0.13 0.00 86 1014.2
20260504141232 65 5 0.0 0.0 0.00 0.13 0.00 85 1014.2
20260504140721 65 5 0.0 0.0 0.00 0.13 0.00 85 1014.3
20260504140702 65 5 0.0 0.0 0.00 0.13 0.00 84 1014.3
20260504130447 66 5 0.0 0.0 0.00 0.13 0.13 82 1014.1
20260504120204 66 5 0.0 0.0 0.00 0.13 0.13 81 1014.1
20260504110540 67 10 0.0 0.9 0.00 0.13 0.13 79 1013.5
20260504100339 68 326 0.0 0.9 0.00 0.13 0.13 78 1013.0
20260504081538 68 303 0.0 0.9 0.00 0.13 0.13 79 1012.8
20260504081041 68 303 0.0 0.9 0.00 0.13 0.13 80 1012.7
20260504080537 68 303 0.0 0.9 0.00 0.13 0.13 80 1012.6
20260504080247 68 303 0.0 0.9 0.00 0.13 0.13 80 1012.8
20260504070357 68 327 0.0 0.0 0.00 0.13 0.13 82 1012.4